TimeCDT,TemperatureF,Dew PointF,Humidity,Sea Level PressureIn,VisibilityMPH,Wind Direction,Wind SpeedMPH,Gust SpeedMPH,PrecipitationIn,Events,Conditions,WindDirDegrees,DateUTC
12:15 AM,50.0,39.2,66,30.13,10.0,ESE,10.4,-,N/A,,Clear,120,2013-05-13 05:15:00
12:35 AM,50.0,39.2,66,30.13,10.0,ESE,10.4,-,N/A,,Clear,120,2013-05-13 05:35:00
12:55 AM,48.2,41.0,76,30.13,10.0,SE,9.2,-,N/A,,Clear,130,2013-05-13 05:55:00
1:15 AM,48.2,41.0,76,30.13,10.0,SE,8.1,-,N/A,,Clear,130,2013-05-13 06:15:00
1:35 AM,48.2,39.2,71,30.12,10.0,SE,10.4,-,N/A,,Clear,130,2013-05-13 06:35:00
1:55 AM,48.2,39.2,71,30.11,10.0,SE,10.4,-,N/A,,Clear,130,2013-05-13 06:55:00
2:15 AM,48.2,39.2,71,30.11,10.0,SE,10.4,-,N/A,,Clear,130,2013-05-13 07:15:00
2:35 AM,48.2,39.2,71,30.10,10.0,SE,9.2,-,N/A,,Clear,130,2013-05-13 07:35:00
2:55 AM,48.2,39.2,71,30.09,10.0,SE,9.2,-,N/A,,Clear,130,2013-05-13 07:55:00
3:15 AM,48.2,39.2,71,30.09,10.0,SE,9.2,-,N/A,,Clear,130,2013-05-13 08:15:00
3:35 AM,46.4,39.2,76,30.08,10.0,SE,10.4,-,N/A,,Clear,130,2013-05-13 08:35:00
3:55 AM,46.4,39.2,76,30.07,10.0,SE,9.2,-,N/A,,Clear,130,2013-05-13 08:55:00
4:15 AM,46.4,39.2,76,30.07,10.0,SE,9.2,-,N/A,,Clear,130,2013-05-13 09:15:00
4:35 AM,46.4,39.2,76,30.06,10.0,SE,9.2,-,N/A,,Clear,130,2013-05-13 09:35:00
4:55 AM,44.6,37.4,76,30.06,10.0,SE,6.9,-,N/A,,Clear,130,2013-05-13 09:55:00
5:15 AM,44.6,37.4,76,30.06,10.0,SE,8.1,-,N/A,,Clear,130,2013-05-13 10:15:00
5:35 AM,46.4,39.2,76,30.07,10.0,ESE,6.9,-,N/A,,Clear,120,2013-05-13 10:35:00
5:55 AM,46.4,37.4,71,30.07,10.0,ESE,8.1,-,N/A,,Clear,120,2013-05-13 10:55:00
6:15 AM,46.4,39.2,76,30.07,10.0,ESE,6.9,-,N/A,,Clear,110,2013-05-13 11:15:00
6:35 AM,46.4,37.4,71,30.07,10.0,ESE,6.9,-,N/A,,Clear,110,2013-05-13 11:35:00
6:55 AM,46.4,39.2,76,30.08,10.0,ESE,5.8,-,N/A,,Clear,110,2013-05-13 11:55:00
7:15 AM,48.2,39.2,71,30.08,10.0,ESE,4.6,-,N/A,,Clear,110,2013-05-13 12:15:00
7:35 AM,50.0,41.0,71,30.08,10.0,ESE,6.9,-,N/A,,Clear,120,2013-05-13 12:35:00
7:55 AM,51.8,42.8,71,30.09,10.0,ESE,5.8,-,N/A,,Clear,120,2013-05-13 12:55:00
8:15 AM,53.6,42.8,67,30.08,10.0,ESE,6.9,-,N/A,,Clear,120,2013-05-13 13:15:00
8:35 AM,53.6,42.8,67,30.09,10.0,ESE,8.1,-,N/A,,Clear,120,2013-05-13 13:35:00
8:55 AM,55.4,42.8,63,30.09,10.0,ESE,5.8,-,N/A,,Clear,120,2013-05-13 13:55:00
9:15 AM,57.2,44.6,63,30.09,10.0,SE,4.6,-,N/A,,Clear,140,2013-05-13 14:15:00
9:35 AM,59.0,44.6,59,30.09,10.0,South,4.6,-,N/A,,Clear,170,2013-05-13 14:35:00
9:55 AM,60.8,44.6,55,30.09,10.0,South,4.6,-,N/A,,Clear,190,2013-05-13 14:55:00
10:15 AM,62.6,44.6,52,30.08,10.0,SSE,3.5,-,N/A,,Clear,160,2013-05-13 15:15:00
10:35 AM,64.4,46.4,52,30.09,10.0,East,3.5,-,N/A,,Clear,100,2013-05-13 15:35:00
10:55 AM,64.4,46.4,52,30.10,10.0,South,3.5,-,N/A,,Clear,180,2013-05-13 15:55:00
11:15 AM,66.2,48.2,52,30.10,10.0,SSE,4.6,-,N/A,,Clear,160,2013-05-13 16:15:00
11:35 AM,69.8,48.2,46,30.10,10.0,SE,6.9,-,N/A,,Clear,140,2013-05-13 16:35:00
11:55 AM,69.8,48.2,46,30.09,10.0,SSE,6.9,-,N/A,,Clear,150,2013-05-13 16:55:00
12:15 PM,71.6,48.2,43,30.09,10.0,ESE,6.9,-,N/A,,Clear,120,2013-05-13 17:15:00
12:35 PM,73.4,50.0,44,30.09,10.0,SE,6.9,-,N/A,,Clear,130,2013-05-13 17:35:00
12:55 PM,75.2,51.8,44,30.09,10.0,SE,9.2,-,N/A,,Clear,140,2013-05-13 17:55:00
1:15 PM,77.0,51.8,41,30.09,10.0,SE,11.5,-,N/A,,Clear,140,2013-05-13 18:15:00
1:35 PM,77.0,51.8,41,30.09,10.0,South,10.4,-,N/A,,Clear,170,2013-05-13 18:35:00
1:55 PM,78.8,51.8,39,30.08,10.0,SSE,9.2,-,N/A,,Clear,160,2013-05-13 18:55:00
2:15 PM,78.8,51.8,39,30.08,10.0,SE,9.2,-,N/A,,Clear,140,2013-05-13 19:15:00
2:35 PM,78.8,51.8,39,30.07,10.0,SSE,10.4,-,N/A,,Clear,150,2013-05-13 19:35:00
3:35 PM,82.4,53.6,37,30.05,10.0,SSE,9.2,-,N/A,,Clear,160,2013-05-13 20:35:00
3:55 PM,82.4,53.6,37,30.05,10.0,South,10.4,-,N/A,,Clear,190,2013-05-13 20:55:00
4:15 PM,82.4,53.6,37,30.04,10.0,South,12.7,-,N/A,,Clear,180,2013-05-13 21:15:00
4:35 PM,80.6,53.6,39,30.03,10.0,South,10.4,-,N/A,,Clear,190,2013-05-13 21:35:00
4:55 PM,82.4,53.6,37,30.03,10.0,South,11.5,-,N/A,,Clear,180,2013-05-13 21:55:00
5:15 PM,82.4,51.8,35,30.02,10.0,South,12.7,-,N/A,,Clear,180,2013-05-13 22:15:00
5:35 PM,82.4,51.8,35,30.02,10.0,South,12.7,-,N/A,,Clear,190,2013-05-13 22:35:00
5:55 PM,82.4,53.6,37,30.01,10.0,South,12.7,-,N/A,,Clear,180,2013-05-13 22:55:00
6:35 PM,80.6,53.6,39,30.00,10.0,South,11.5,-,N/A,,Clear,180,2013-05-13 23:35:00
7:15 PM,78.8,57.2,47,30.00,10.0,South,6.9,-,N/A,,Clear,180,2013-05-14 00:15:00
7:35 PM,75.2,53.6,47,29.99,10.0,South,9.2,-,N/A,,Clear,170,2013-05-14 00:35:00
7:55 PM,75.2,53.6,47,29.99,10.0,South,6.9,-,N/A,,Clear,170,2013-05-14 00:55:00
8:15 PM,73.4,53.6,50,29.99,10.0,South,9.2,-,N/A,,Clear,170,2013-05-14 01:15:00
8:35 PM,71.6,53.6,53,29.99,10.0,South,8.1,-,N/A,,Clear,170,2013-05-14 01:35:00
8:55 PM,69.8,53.6,56,29.99,10.0,South,8.1,-,N/A,,Clear,170,2013-05-14 01:55:00
9:15 PM,69.8,53.6,56,29.99,10.0,SSE,9.2,-,N/A,,Clear,160,2013-05-14 02:15:00
9:35 PM,69.8,53.6,56,29.99,10.0,SSE,8.1,-,N/A,,Clear,160,2013-05-14 02:35:00
9:55 PM,69.8,53.6,56,29.99,10.0,South,10.4,-,N/A,,Clear,170,2013-05-14 02:55:00
10:15 PM,68.0,53.6,60,29.99,10.0,South,11.5,-,N/A,,Clear,170,2013-05-14 03:15:00
10:35 PM,68.0,53.6,60,29.99,10.0,SSE,9.2,-,N/A,,Clear,160,2013-05-14 03:35:00
10:55 PM,69.8,53.6,56,29.99,10.0,South,10.4,-,N/A,,Clear,170,2013-05-14 03:55:00
11:15 PM,69.8,53.6,56,29.98,10.0,South,10.4,-,N/A,,Clear,170,2013-05-14 04:15:00
11:35 PM,68.0,53.6,60,29.98,10.0,South,11.5,-,N/A,,Clear,170,2013-05-14 04:35:00
11:55 PM,66.2,53.6,64,29.97,10.0,SSE,9.2,-,N/A,,Clear,160,2013-05-14 04:55:00